AirNav   Phillips 66 Aviation Fuel
 
 666 users online  

MA36 Snow Airport
Ipswich, Massachusetts, USA

GOING TO IPSWICH?


FAA INFORMATION EFFECTIVE 14 SEPTEMBER 2017

Location

FAA Identifier: MA36
Lat/Long: 42-39-59.3370N / 070-51-10.6800W
42-39.988950N / 070-51.178000W
42.6664825 / -70.8529667
(estimated)
Elevation: 61 ft. / 18.6 m (surveyed)
Variation: 16W (1985)
From city: 1 mile SW of IPSWICH, MA
Time zone: UTC -4 (UTC -5 during Standard Time)
Zip code: 01938

Airport Operations

Airport use: Private use. Permission required prior to landing
Activation date: 09/1950
Control tower: no
ARTCC: BOSTON CENTER
FSS: BRIDGEPORT FLIGHT SERVICE STATION
Attendance: CONTINUOUS
Wind indicator: no
Segmented circle: no

Airport Communications

WX ASOS at BVY (6 nm SW): PHONE 978-921-5042
WX ASOS at LWM (12 nm W): 126.75 (978-687-8017)
WX ASOS at BOS (19 nm S): PHONE 617-567-5762

Nearby radio navigation aids

VOR radial/distance  VOR name  Freq  Var
LWMr128/11.6LAWRENCE VOR/DME112.5015W
BOSr034/19.5BOSTON VOR/DME112.7016W
PSMr198/25.1PEASE VOR/DME116.5016W
MHTr133/25.8MANCHESTER VOR/DME114.4015W

 
NDB name  Hdg/Dist  Freq  Var  ID
SHAKER HILL065/19.225116WSKR ... -.- .-.
ROLLINS198/33.226016WESG . ... --.
MARSHFIELD003/35.036816WIMR .. -- .-.

Airport Services

Fuel available: 100LL
Airframe service: NONE
Powerplant service: NONE

Runway Information

Runway 4/22

Dimensions: 1600 x 100 ft. / 488 x 30 m
Surface: turf
RUNWAY 4  RUNWAY 22
Traffic pattern: leftleft

Airport Ownership and Management from official FAA records

Ownership: Privately-owned
Owner: CROCKER SNOW
120 TOPSFIELD RD
IPSWICH, MA 01938-1665
Phone 978-395-1961
Manager: CROCKER SNOW
120 TOPSFIELD RD
IPSWICH, MA 01938-1665
Phone 978-356-4422

Airport Operational Statistics

Aircraft based on the field: 1
Single engine airplanes: 1
    

Instrument Procedures

There are no published instrument procedures at MA36.

Some nearby airports with instrument procedures:

KBVY - Beverly Regional Airport (6 nm SW)
KLWM - Lawrence Municipal Airport (12 nm W)
KBOS - General Edward Lawrence Logan International Airport (19 nm S)
KBED - Laurence G Hanscom Field Airport (23 nm SW)
KPSM - Portsmouth International Airport at Pease (25 nm N)
 
Loc | Ops | Rwys | IFR | FBO | Links
Com | Nav | Svcs | Stats | Notes


 
Area around MA36 (Snow Airport)
 
Road maps at: MapQuest Bing Google
 
Aerial photo
No photo
 
Sectional chart

 
Airport distance calculator
Flying to Snow Airport? Find the distance to fly.

From to MA36

Sunrise and sunset
Times for 22-Sep-2017
 Local
(UTC-4)
 Zulu
(UTC)
Morning civil twilight06:0310:03
Sunrise06:3210:32
Sunset18:4122:41
Evening civil twilight19:0923:09

Current date and time
Zulu (UTC)  22-Sep-2017 11:44:33
Local (UTC-4)  22-Sep-2017 07:44:33
 
METAR
KBVY 
6nm SW 
221053Z 02016G24KT 7SM -RA BKN020 OVC026 14/12 A3002 RMK AO2 SLP160 P0001 T01440122
KLWM 
13nm W 
221054Z 02013KT 10SM BKN025 OVC036 17/10 A3006 RMK AO2 SLP179 T01720100
KBOS 
19nm S 
221054Z 01021G26KT 3SM -RA BR SCT008 BKN012 OVC023 14/13 A3001 RMK AO2 PK WND 01028/1013 SLP161 P0009 T01390128
TAF
KBOS 
19nm S 
220826Z 2208/2312 02022G32KT 5SM -SHRA OVC025 FM221100 02022G34KT P6SM VCSH OVC025 FM221800 02022G35KT 6SM -SHRA OVC015 FM230000 02015G24KT P6SM OVC012 FM231000 02010G19KT P6SM BKN010
KBED 
23nm SW 
220827Z 2208/2306 02012G22KT P6SM OVC035 FM221300 02014G28KT P6SM VCSH OVC020 FM230100 02010KT P6SM BKN020
KPSM 
24nm N 
220901Z 2209/2306 01012KT P6SM BKN070 WS015/05030KT FM221200 02012G20KT P6SM SCT025 BKN200
NOTAMs
Click for the latest NOTAMs
NOTAMs are issued by the DoD/FAA and will open in a separate window not controlled by AirNav.

 

 
 

Would you like to see your business listed on this page?

 If your business provides an interesting product or service to pilots, flight crews, aircraft, or users of the Snow Airport, you should consider listing it here.  To start the listing process, click on the button below
 
Add a business
 

Other Pages about Snow Airport

Update a link
 
Copyright © AirNav, LLC. All rights reserved. Privacy Policy  Contact